Regional Weather Roundup
Issued by NWS

Home | Current Version | Previous Version | Text Only | Print | Product List | Glossary Off
Versions: 1 2 3 4 5 6 7 8 9 10 11 12 13 14 15 16 17 18 19 20 21 22 23 24 25 26 27 28 29 30 31 32 33 34 35 36 37 38 39 40 41 42 43 44 45 46 47 48 49 50

000
ASUS44 KMEG 220700
RWRTN
TENNESSEE HOURLY STATE WEATHER ROUNDUP
NATIONAL WEATHER SERVICE MEMPHIS TN
100 AM CST THU FEB 22 2018

TNZ002-004-019-021-049-052-054-088>092-220800-
WEST TENNESSEE

CITY           SKY/WX    TMP DP  RH WIND       PRES   REMARKS
MEMPHIS INTL   LGT RAIN  42  41  96 NW12      30.29R
NWS MEMPHIS      N/A     46 N/A N/A MISG        N/A
JACKSON        HVY RAIN  47  47 100 E7        30.25R FOG
DYERSBURG      RAIN      41  40  96 NE10      30.29R
HUNTINGDON     CLOUDY    46  45  93 NE9       30.25F FOG
LEXINGTON      CLOUDY    46  46 100 N9        30.26R FOG
SAVANNAH       CLOUDY    52  52 100 N8        30.23R
$$

TNZ008-025-027-028-033-062-065-066-220800-
NORTH MIDDLE TENNESSEE

CITY           SKY/WX    TMP DP  RH WIND       PRES   REMARKS
NASHVILLE      CLOUDY    51  49  92 CALM      30.26F
CLARKSVILLE    HVY RAIN  47  45  93 NE6       30.26R FOG
SMYRNA         CLOUDY    51  50  96 CALM      30.27F
COOKEVILLE     MOCLDY    55  55 100 CALM      30.25F
CROSSVILLE     FAIR      67  60  78 S15G23    30.30F
$$

TNZ061-075-076-078-094-096-097-220800-
SOUTH MIDDLE TENNESSEE

CITY           SKY/WX    TMP DP  RH WIND       PRES   REMARKS
FAYETTEVILLE   PTCLDY    63  63 100 S9        30.26R
TULLAHOMA      MOCLDY    54  54 100 CALM      30.26S FOG
WINCHESTER     CLEAR     70  63  78 S13       30.27S
MCMINNVILLE    CLOUDY    55  55 100 CALM      30.26F
$$

TNZ017-018-042-046-047-220800-
NORTHEAST TENNESSEE

CITY           SKY/WX    TMP DP  RH WIND       PRES   REMARKS
TRI CITIES     CLOUDY    59  57  93 CALM      30.34S
$$

TNZ012-013-036-069-073-074-220800-
CENTRAL EAST TENNESSEE

CITY           SKY/WX    TMP DP  RH WIND       PRES   REMARKS
KNOXVILLE      MOCLDY    67  59  75 SW7       30.29S
OAK RIDGE      FAIR      62  61  96 CALM      30.30F
MORRISTOWN     CLEAR     61  57  88 CALM      30.31S
$$

TNZ083-085-099-220800-
SOUTHEAST TENNESSEE

CITY           SKY/WX    TMP DP  RH WIND       PRES   REMARKS
CHATTANOOGA    FAIR      71  61  70 S9        30.30F
$$

SKY/WX REPORTED AS FAIR MEANS FEW OR NO CLOUDS BELOW
12 THOUSAND FEET.





USA.gov is the U.S. government's official web portal to all federal, state and local government web resources and services.